Le nostre stazioni meteo in Italia

Pubblicità
Il mio iltempo24.it
St-Etienne Boutheon, Francia (7475): Temperatura & dewpoint: 08.11.2019 09:00:00 - 14.11.2019 09:00:00 (CET)St-Etienne Boutheon, Francia (7475): Temperatura 5cm: 08.11.2019 09:00:00 - 14.11.2019 09:00:00 (CET)St-Etienne Boutheon, Francia (7475): Temperatura -20cm & Temperatura -100cm: 08.11.2019 09:00:00 - 14.11.2019 09:00:00 (CET)St-Etienne Boutheon, Francia (7475): velocità del vento & gusts: 08.11.2019 09:00:00 - 14.11.2019 09:00:00 (CET)St-Etienne Boutheon, Francia (7475): direzione del vento: 08.11.2019 09:00:00 - 14.11.2019 09:00:00 (CET)St-Etienne Boutheon, Francia (7475): reduced air pressure: 08.11.2019 09:00:00 - 14.11.2019 09:00:00 (CET)St-Etienne Boutheon, Francia (7475): visibility: 08.11.2019 09:00:00 - 14.11.2019 09:00:00 (CET)St-Etienne Boutheon, Francia (7475): ore di luce: 08.11.2019 09:00:00 - 14.11.2019 09:00:00 (CET)St-Etienne Boutheon, Francia (7475): precipitazioni: 08.11.2019 09:00:00 - 14.11.2019 09:00:00 (CET)
Data & Tempo tt [°C] td [°C] tt 5cm [°C] tt -20cm [°C] tt -100cm [°C] ff [km/h] ff [kn] fx [km/h] fx [kn] dd ppp [hPa] vv [km] sd [min] rr [mm]
14.11.2019 09:00:00 5,1 2,6 3,4 7,5 13,0 24 13 44 24 SSE 1001,3 60 0 0,0
14.11.2019 08:00:00 4,1 2,1 3,1 7,5 13,0 21 12 42 23 S 1001,7 60 0 0,6
14.11.2019 07:00:00 6,8 -0,4 5,5 7,5 13,0 19 10 34 18 SO 1000,9 40 0 0,0
14.11.2019 06:00:00 6,9 -2,0 6,1 7,5 13,0 11 6 28 15 SO 999,0 60 0 0,0
14.11.2019 05:00:00 7,0 -2,2 3,8 7,6 13,0 18 10 32 18 S 998,2 60 0 0,0
14.11.2019 04:00:00 4,8 -1,9 2,9 7,7 13,0 10 6 26 14 SE 999,4 60 0 0,0
14.11.2019 03:00:00 4,2 -1,6 2,9 7,8 13,0 18 10 26 14 SSE 1001,3 60 0 0,0
14.11.2019 02:00:00 4,2 -1,0 0,7 7,9 13,0 22 12 36 19 S 1002,2 60 0 0,0
14.11.2019 01:00:00 2,1 -1,3 -0,9 8,2 13,1 9 5 21 12 SSE 1004,1 53 0 0,0
14.11.2019 00:00:00 1,6 -1,1 -1,7 8,4 13,1 15 8 20 11 SSE 1006,0 39 0 0,0
13.11.2019 23:00:00 1,4 -0,7 -1,7 8,6 13,1 12 6 23 13 S 1007,1 27 0 0,0
13.11.2019 22:00:00 0,7 -1,1 -3,8 8,8 13,1 13 7 16 9 SSE 1008,1 32 0 0,0
13.11.2019 21:00:00 0,3 -1,1 -3,4 9,0 13,1 10 6 12 7 S 1008,5 30 0 0,0
13.11.2019 20:00:00 -0,1 -1,4 -3,5 9,2 13,1 8 4 10 5 SSE 1009,3 38 0 -
13.11.2019 19:00:00 3,2 0,4 -1,0 9,3 13,1 5 3 8 5 SE 1009,1 43 0 0,0
13.11.2019 18:00:00 5,8 0,7 4,5 9,4 13,1 4 2 12 6 NE 1009,1 36 0 0,0
13.11.2019 17:00:00 6,2 0,5 4,8 9,3 13,1 5 3 16 9 NNO 1008,7 52 5 0,0
13.11.2019 16:00:00 7,4 0,4 6,9 9,1 13,1 9 5 17 9 N 1008,2 59 19 0,0
13.11.2019 15:00:00 6,9 0,6 7,1 8,9 13,2 8 4 21 11 NNE 1008,3 47 13 0,0
13.11.2019 14:00:00 6,7 0,1 7,6 8,7 13,2 9 5 22 12 N 1008,2 59 22 0,0
13.11.2019 13:00:00 6,5 0,8 7,7 8,4 13,2 10 6 19 10 NNE 1008,5 57 21 0,0
13.11.2019 12:00:00 6,6 0,3 8,8 8,2 13,2 9 5 18 10 NNE 1008,9 54 50 0,0
13.11.2019 11:00:00 5,9 0,6 7,4 8,1 13,2 6 3 15 8 N 1009,0 44 50 0,0
13.11.2019 10:00:00 4,4 2,3 5,7 8,0 13,2 5 3 9 5 ONO 1009,0 47 25 0,0
13.11.2019 09:00:00 4,5 2,7 2,8 8,1 13,2 3 1 8 4 NO 1008,6 38 37 0,0
13.11.2019 08:00:00 3,0 2,1 2,5 8,1 13,2 3 2 7 4 ONO 1008,1 29 0 0,0
13.11.2019 07:00:00 2,8 2,1 2,5 8,1 13,2 4 2 14 7 ONO 1007,5 27 0 0,0
13.11.2019 06:00:00 2,9 2,5 2,3 8,2 13,3 2 1 6 3 ONO 1007,1 22 0 0,0
13.11.2019 05:00:00 2,4 2,1 0,8 8,4 13,2 3 2 7 4 SO 1007,0 16 0 0,0
13.11.2019 04:00:00 1,6 1,3 -0,1 8,5 13,3 2 1 4 2 NO 1006,9 17 0 0,0
13.11.2019 03:00:00 1,4 1,1 -3,3 8,7 13,3 3 2 8 4 OSO 1007,0 18 0 0,0
13.11.2019 02:00:00 1,2 0,8 -2,4 8,8 13,3 3 2 10 6 SE 1006,6 19 0 0,0
13.11.2019 01:00:00 2,4 1,5 -1,0 9,0 13,3 0 0 7 4 N 1006,7 17 0 0,0
13.11.2019 00:00:00 3,7 2,7 2,0 9,1 13,3 5 3 7 4 S 1006,2 24 0 0,0
12.11.2019 23:00:00 3,5 2,6 0,8 9,1 13,3 4 2 5 3 E 1006,4 19 0 0,0
12.11.2019 22:00:00 4,9 3,1 3,1 9,2 13,3 3 2 8 4 SSE 1006,5 35 0 0,0
12.11.2019 21:00:00 5,5 3,3 4,6 9,3 13,3 2 1 10 5 O 1006,8 25 0 0,0
12.11.2019 20:00:00 6,1 2,7 4,4 9,3 13,3 4 2 8 4 SSO 1006,7 42 0 0,0
12.11.2019 19:00:00 6,4 2,3 4,6 9,4 13,4 4 2 9 5 SSO 1007,2 52 0 0,0
12.11.2019 18:00:00 6,3 2,6 4,2 9,3 13,4 6 3 9 5 ESE 1007,4 60 0 0,0
12.11.2019 17:00:00 7,7 1,3 6,0 9,2 13,4 4 2 26 14 NNO 1007,3 60 2 0,0
12.11.2019 16:00:00 8,9 2,2 9,2 8,9 13,4 11 6 23 12 N 1007,3 60 30 0,0
12.11.2019 15:00:00 9,4 1,5 11,0 8,5 13,4 5 3 14 8 NNO 1007,5 60 11 0,0
12.11.2019 14:00:00 9,2 1,6 11,7 8,1 13,4 7 4 17 9 N 1008,4 14 17 0,0
12.11.2019 13:00:00 10,1 2,0 14,6 7,7 13,4 6 3 14 8 O 1008,7 19 58 0,0
12.11.2019 12:00:00 9,2 1,4 13,2 7,5 13,4 8 4 20 11 ESE 1010,0 57 60 0,0
12.11.2019 11:00:00 8,3 1,2 8,5 7,5 13,5 8 5 20 11 SSE 1010,8 58 55 0,0
12.11.2019 10:00:00 5,0 1,1 4,3 7,5 13,4 16 9 27 15 S 1011,6 20 60 0,0
12.11.2019 09:00:00 2,0 0,4 -3,1 7,7 13,4 11 6 16 9 S 1012,6 20 60 0,0
12.11.2019 08:00:00 -0,9 -2,0 -5,4 7,9 13,5 8 4 11 6 S 1013,3 38 0 0,0
12.11.2019 07:00:00 -1,3 -1,9 -5,7 8,1 13,5 3 1 11 6 SSE 1013,3 13 0 0,0
12.11.2019 06:00:00 -1,1 -1,8 -4,9 8,3 13,5 5 3 12 7 S 1013,7 19 0 0,0
12.11.2019 05:00:00 0,2 0,1 -4,8 8,5 13,5 8 4 10 5 S 1013,8 20 0 0,0
12.11.2019 04:00:00 -1,4 -1,8 -4,8 8,8 13,5 6 4 8 5 SSE 1014,6 11 0 0,0
12.11.2019 03:00:00 0,3 0,0 -3,1 9,0 13,5 4 2 12 7 S 1014,7 19 0 0,0
12.11.2019 02:00:00 0,5 -0,1 -1,7 9,2 13,5 5 3 9 5 SSE 1014,8 19 0 0,0
12.11.2019 01:00:00 3,0 1,0 0,6 9,4 13,6 7 4 20 11 NO 1014,2 47 0 0,0
12.11.2019 00:00:00 5,0 1,7 2,8 9,5 13,6 11 6 27 15 NO 1013,9 58 0 0,0
11.11.2019 23:00:00 5,2 1,3 3,4 9,6 13,6 8 5 22 12 NNO 1013,6 60 0 0,0
11.11.2019 22:00:00 6,0 2,8 5,0 9,6 13,6 7 4 21 12 NNO 1013,4 49 0 0,0
11.11.2019 21:00:00 5,7 3,2 5,0 9,7 13,6 14 8 50 27 NO 1012,8 60 0 0,4
11.11.2019 20:00:00 8,8 2,8 6,6 9,7 13,6 12 6 22 12 OSO 1010,4 60 0 0,0
11.11.2019 19:00:00 7,9 3,7 6,0 9,7 13,6 5 3 14 8 S 1010,2 60 0 0,0
11.11.2019 18:00:00 7,2 2,7 5,9 9,7 13,6 9 5 21 11 S 1009,8 60 0 0,0
11.11.2019 17:00:00 9,6 1,5 8,8 9,5 13,6 13 7 24 13 SSO 1009,2 46 19 0,0
11.11.2019 16:00:00 9,5 1,9 9,5 9,2 13,6 3 1 14 8 NE 1009,3 60 4 0,0
11.11.2019 15:00:00 10,8 1,6 16,0 8,8 13,7 9 5 20 11 NNO 1009,1 46 60 0,0
11.11.2019 14:00:00 11,5 0,3 14,3 8,5 13,7 8 5 23 12 OSO 1009,5 19 60 0,0
11.11.2019 13:00:00 9,9 1,3 9,6 8,2 13,7 14 8 28 15 S 1010,2 19 58 0,0
11.11.2019 12:00:00 7,4 1,5 8,3 8,0 13,7 15 8 27 15 S 1011,8 55 0 0,0
11.11.2019 11:00:00 6,4 2,5 5,4 7,9 13,7 14 8 21 12 SSE 1013,0 53 0 0,0
11.11.2019 10:00:00 4,1 2,8 3,5 7,9 13,7 4 2 8 5 N 1014,5 20 0 0,0
11.11.2019 09:00:00 3,1 2,2 2,4 7,9 13,7 5 3 9 5 NO 1015,2 34 0 0,0
11.11.2019 08:00:00 2,8 2,1 1,2 8,0 13,7 8 4 15 8 S 1015,1 42 0 0,0
11.11.2019 07:00:00 1,4 1,1 1,0 8,0 13,7 4 2 10 5 SE 1016,0 14 0 0,0
11.11.2019 06:00:00 1,5 1,2 0,0 8,1 13,7 8 5 10 6 ONO 1016,4 13 0 0,0
11.11.2019 05:00:00 0,5 0,2 -0,6 8,3 13,8 2 1 9 5 NO 1016,8 18 0 0,0
11.11.2019 04:00:00 -0,4 -0,7 -3,3 8,5 13,8 5 3 8 4 NE 1016,9 16 0 0,0
11.11.2019 03:00:00 -0,7 -0,8 -5,0 8,7 13,8 3 2 10 5 SE 1017,0 15 0 0,0
11.11.2019 02:00:00 -1,6 -1,9 -5,3 8,9 13,8 6 3 9 5 SE 1017,6 16 0 0,0
11.11.2019 01:00:00 -0,3 -0,4 -4,8 9,2 13,8 3 1 5 3 S 1018,1 7 0 0,0
11.11.2019 00:00:00 -0,9 -1,3 -4,3 9,5 13,8 4 2 5 3 S 1017,1 4,7 0 0,0
10.11.2019 23:00:00 0,3 -0,1 -3,9 9,8 13,8 3 2 8 4 SSE 1016,4 8 0 0,0
10.11.2019 22:00:00 0,4 0,0 -3,5 10,0 13,8 5 3 7 4 SE 1016,7 19 0 0,0
10.11.2019 21:00:00 1,8 0,9 -2,2 10,2 13,8 5 3 7 4 SE 1016,5 29 0 0,0
10.11.2019 20:00:00 4,3 2,2 1,4 10,3 13,9 4 2 8 4 NO 1016,2 48 0 0,0
10.11.2019 19:00:00 5,8 2,6 2,6 10,4 13,9 5 3 12 6 NE 1015,3 45 0 0,0
10.11.2019 18:00:00 6,9 2,8 6,2 10,4 13,9 13 7 25 13 NE 1014,1 18 0 0,0
10.11.2019 17:00:00 7,9 2,8 7,5 10,3 13,9 13 7 21 12 N 1013,1 60 2 0,0
10.11.2019 16:00:00 8,5 1,4 9,0 10,2 13,9 13 7 23 12 N 1012,4 60 3 0,0
10.11.2019 15:00:00 9,0 1,9 9,9 9,9 13,9 13 7 25 13 N 1011,9 56 30 0,0
10.11.2019 14:00:00 9,0 2,1 9,9 9,6 13,9 16 9 26 14 N 1011,6 20 31 0,0
10.11.2019 13:00:00 9,4 2,3 9,9 9,4 13,9 13 7 24 13 NO 1011,1 60 40 0,0
10.11.2019 12:00:00 7,9 3,2 9,7 9,1 13,9 9 5 20 11 N 1011,3 60 24 0,0
10.11.2019 11:00:00 8,0 2,9 11,3 9,0 14,0 7 4 16 9 NNO 1011,2 58 43 0,0
10.11.2019 10:00:00 7,4 3,6 7,1 8,9 14,0 8 4 16 9 NNO 1010,9 54 28 0,0
10.11.2019 09:00:00 6,0 3,0 4,3 8,9 13,9 0 0 9 5 N 1010,3 60 0 0,0
10.11.2019 08:00:00 5,2 2,2 4,0 9,0 14,0 5 3 11 6 SSE 1009,7 60 0 0,0
10.11.2019 07:00:00 5,1 2,6 3,8 9,0 14,0 3 2 10 5 OSO 1009,1 60 0 0,0
10.11.2019 06:00:00 5,2 2,5 2,9 9,1 14,0 2 1 22 12 NNE 1008,8 60 0 0,0
10.11.2019 05:00:00 5,2 1,5 3,0 9,2 14,0 8 4 22 12 S 1007,9 60 0 0,0
10.11.2019 04:00:00 7,0 2,1 5,2 9,2 14,1 11 6 33 18 SSO 1007,3 60 0 0,0
10.11.2019 03:00:00 6,2 1,9 5,1 9,3 14,1 8 4 24 13 S 1007,8 60 0 0,0
10.11.2019 02:00:00 6,0 1,5 4,9 9,4 14,1 6 4 23 12 SSO 1007,6 60 0 0,0
10.11.2019 01:00:00 6,2 1,1 4,5 9,4 14,1 13 7 24 13 SSO 1007,4 60 0 0,0
10.11.2019 00:00:00 5,4 0,9 4,2 9,6 14,1 8 5 24 13 SSO 1007,4 60 0 0,0
09.11.2019 23:00:00 5,1 1,4 1,8 9,8 14,1 12 7 19 11 SSE 1008,0 60 0 0,0
09.11.2019 22:00:00 2,8 1,2 0,5 10,0 14,1 8 5 20 11 S 1009,0 34 0 0,0
09.11.2019 21:00:00 2,7 0,8 -0,2 10,3 14,1 14 8 19 11 SSE 1009,5 35 0 0,0
09.11.2019 20:00:00 2,7 0,6 -0,2 10,5 14,1 15 8 19 10 SSE 1010,0 38 0 0,0
09.11.2019 19:00:00 4,2 1,9 -0,7 10,7 14,2 7 4 11 6 S 1010,2 37 0 0,0
09.11.2019 18:00:00 4,3 1,8 0,4 10,7 14,2 4 2 10 6 SSE 1010,6 51 0 0,0
09.11.2019 17:00:00 5,2 2,0 3,2 10,6 14,2 10 5 12 7 SSE 1011,1 60 27 0,0
09.11.2019 16:00:00 10,0 2,8 11,3 10,4 14,2 3 1 11 6 NE 1011,0 60 47 0,0
09.11.2019 15:00:00 9,0 2,3 11,0 10,1 14,2 6 3 13 7 ONO 1011,9 55 36 0,0
09.11.2019 14:00:00 8,2 2,2 10,0 9,8 14,2 6 3 15 8 NNO 1012,5 59 13 0,0
09.11.2019 13:00:00 8,6 3,4 10,1 9,6 14,2 10 5 19 11 NE 1012,8 43 36 0,0
09.11.2019 12:00:00 8,0 4,8 7,8 9,4 14,2 10 6 19 10 N 1013,8 30 27 0,0
09.11.2019 11:00:00 6,3 4,8 6,0 9,3 14,2 3 2 9 5 O 1014,9 22 0 0,0
09.11.2019 10:00:00 5,8 4,9 5,6 9,3 14,2 4 2 10 5 ONO 1014,8 14 0 0,0
09.11.2019 09:00:00 5,5 4,6 4,9 9,3 14,2 3 1 11 6 N 1014,9 14 0 0,0
09.11.2019 08:00:00 4,9 4,3 4,4 9,4 14,3 2 1 7 4 NNO 1014,6 12 0 0,0
09.11.2019 07:00:00 4,8 4,2 2,5 9,4 14,3 5 3 9 5 NNO 1014,2 15 0 0,0
09.11.2019 06:00:00 5,0 4,4 4,2 9,4 14,3 0 0 5 3 N 1013,7 14 0 0,0
09.11.2019 05:00:00 5,0 4,6 3,9 9,5 14,3 4 2 10 5 NNO 1013,2 14 0 0,0
09.11.2019 04:00:00 4,9 4,5 4,0 9,5 14,3 3 2 6 3 N 1012,6 12 0 0,0
09.11.2019 03:00:00 4,8 4,5 3,7 9,5 14,3 0 0 4 2 N 1012,3 7 0 0,0
09.11.2019 02:00:00 5,1 4,5 4,4 9,6 14,4 0 0 9 5 N 1011,9 10 0 0,2
09.11.2019 01:00:00 5,3 4,7 4,5 9,6 14,4 3 2 14 8 NO 1011,7 4,5 0 1,2
09.11.2019 00:00:00 4,6 4,2 3,9 9,7 14,4 2 1 6 4 NNE 1011,1 10 0 0,0
08.11.2019 23:00:00 4,1 3,7 2,6 9,8 14,4 3 2 7 4 NO 1010,3 18 0 0,0
08.11.2019 22:00:00 3,4 3,1 1,0 10,0 14,5 3 2 5 3 N 1009,8 20 0 0,0
08.11.2019 21:00:00 2,8 2,4 0,1 10,1 14,4 2 1 5 3 S 1009,0 20 0 0,0
08.11.2019 20:00:00 3,2 2,3 0,1 10,3 14,4 3 2 6 4 E 1008,3 15 0 0,0
08.11.2019 19:00:00 4,6 2,8 1,5 10,3 14,4 4 2 9 5 ENE 1007,1 34 0 0,0
08.11.2019 18:00:00 6,3 3,5 4,9 10,4 14,5 6 4 21 11 NO 1005,8 60 0 0,0
08.11.2019 17:00:00 6,8 4,1 5,7 10,3 14,5 7 4 23 13 SE 1005,0 60 0 0,2
08.11.2019 16:00:00 8,3 2,7 5,8 10,1 14,5 16 9 24 13 SE 1004,2 19 0 0,8
08.11.2019 15:00:00 9,9 2,5 8,5 9,8 14,5 10 5 18 10 SSE 1003,2 20 0 0,0
08.11.2019 14:00:00 10,0 1,6 11,2 9,5 14,5 10 5 25 14 SSE 1002,9 60 35 0,0
08.11.2019 13:00:00 10,6 1,4 11,0 9,2 14,5 13 7 29 15 SSO 1002,8 60 50 0,0
08.11.2019 12:00:00 8,9 0,3 9,5 8,9 14,5 19 11 30 16 S 1003,7 60 11 0,0
08.11.2019 11:00:00 9,0 1,2 9,2 8,8 14,5 14 8 21 11 SSO 1003,9 60 37 0,0
08.11.2019 10:00:00 6,9 2,0 8,4 8,9 14,6 11 6 18 10 S 1004,3 58 40 0,0
08.11.2019 09:00:00 5,0 0,9 1,5 9,0 14,6 8 4 13 7 S 1004,8 60 60 0,0

tt = Temperatura
td = dewpoint
tt 5cm = Temperatura 5cm
tt -20cm = Temperatura -20cm
tt -100cm = Temperatura -100cm
ff = velocità del vento
fx = gusts
dd = direzione del vento
ppp = reduced air pressure
vv = visibility
sd = ore di luce
rr = precipitazioni

Stazioni seguenti

WeatherPro
AMSI
MeteoEarth